Back to catalog

DELTA 1 R/B

AliveLEO
NORAD 3094·ROCKET BODY·🇺🇸 United States

Launched Jan 11, 1968 from Vandenberg Space Force Base

Loading…

Next Passes (next 24 hours)

TLE

FreshSource: Space-Track

Epoch: Sep 14, 2026, 12:24 UTC

1 03094U 68002B   26257.51672642 -.00000058  00000-0  64857-4 0  9995
2 03094 105.8143 262.2502 0313849 261.2174 256.3852 12.85290561751430

Track DELTA 1 R/B in real time with AllMySat

Download on the App Store